Precipitable_Water
1.59 1.56 1.54 1.49 1.45 1.38 1.34 1.30 1.24 1.21 1.18 1.20 1.18 1.17 1.19 1.20 1.19 1.22 1.29 1.28 1.30 1.30 1.31 1.33 1.35 1.34 1.33 1.34 1.34 1.35 1.35 1.36 1.41 1.45 1.44 1.42 1.43 1.42 1.43 1.42 1.37 1.40 1.43 1.46 1.52 1.52 1.49 1.45 1.46 1.48 1.50 1.41 1.41 1.40 1.38 1.38 1.41 1.41 1.42 1.39 1.34 1.37 1.28 1.19 1.05 1.00 1.15 1.30 1.20 1.21 1.31 1.31 1.27 1.33 1.24 1.23 1.24 1.27 1.30 1.30 1.35 1.36 1.48 1.54 1.68
1.61 1.60 1.57 1.54 1.48 1.45 1.41 1.38 1.33 1.27 1.17 1.15 1.14 1.15 1.14 1.16 1.18 1.20 1.18 1.23 1.25 1.23 1.23 1.26 1.29 1.31 1.30 1.31 1.32 1.32 1.34 1.35 1.38 1.39 1.38 1.36 1.37 1.39 1.37 1.36 1.34 1.34 1.37 1.35 1.41 1.43 1.43 1.39 1.38 1.42 1.45 1.37 1.35 1.33 1.33 1.31 1.32 1.31 1.35 1.34 1.32 1.32 1.37 1.20 1.13 1.04 0.95 1.16 1.21 1.30 1.25 1.32 1.16 1.34 1.22 1.16 1.18 1.25 1.21 1.22 1.30 1.33 1.37 1.50 1.62
1.70 1.68 1.63 1.58 1.54 1.52 1.50 1.45 1.40 1.32 1.22 1.15 1.10 1.10 1.11 1.12 1.16 1.14 1.14 1.17 1.21 1.19 1.18 1.18 1.21 1.24 1.24 1.25 1.28 1.29 1.31 1.33 1.37 1.38 1.37 1.36 1.33 1.35 1.35 1.33 1.31 1.30 1.29 1.30 1.33 1.38 1.35 1.33 1.33 1.38 1.40 1.32 1.30 1.29 1.29 1.26 1.27 1.24 1.24 1.29 1.26 1.29 1.33 1.28 1.16 1.04 1.00 1.03 1.17 1.13 1.21 1.27 1.19 1.18 1.24 1.24 1.26 1.31 1.20 1.17 1.21 1.28 1.39 1.51 1.58
1.76 1.74 1.69 1.64 1.62 1.59 1.53 1.51 1.45 1.39 1.29 1.22 1.13 1.10 1.10 1.10 1.12 1.10 1.11 1.13 1.12 1.15 1.15 1.14 1.15 1.16 1.16 1.16 1.18 1.20 1.25 1.27 1.31 1.33 1.31 1.26 1.23 1.22 1.23 1.23 1.24 1.25 1.26 1.28 1.31 1.34 1.32 1.30 1.31 1.35 1.37 1.29 1.28 1.27 1.28 1.26 1.23 1.23 1.22 1.25 1.23 1.23 1.29 1.28 1.25 1.13 1.10 1.00 1.08 1.10 1.17 1.15 1.20 1.26 1.25 1.23 1.25 1.26 1.23 1.21 1.23 1.25 1.35 1.44 1.51
1.73 1.66 1.69 1.67 1.65 1.60 1.56 1.53 1.47 1.42 1.37 1.32 1.23 1.17 1.13 1.11 1.10 1.07 1.07 1.05 1.05 1.07 1.09 1.10 1.08 1.09 1.07 1.07 1.09 1.11 1.14 1.20 1.22 1.23 1.22 1.20 1.18 1.16 1.15 1.14 1.13 1.14 1.16 1.19 1.22 1.24 1.26 1.26 1.30 1.35 1.35 1.28 1.27 1.26 1.27 1.24 1.24 1.22 1.20 1.24 1.22 1.23 1.25 1.24 1.23 1.22 1.11 1.02 1.04 1.14 1.19 1.16 1.21 1.21 1.23 1.13 1.16 1.22 1.25 1.19 1.15 1.18 1.30 1.38 1.45
1.74 1.66 1.63 1.62 1.62 1.61 1.59 1.55 1.50 1.46 1.43 1.40 1.36 1.30 1.23 1.16 1.10 1.08 1.06 1.02 1.01 1.02 1.01 1.02 1.00 0.99 1.01 1.03 1.05 1.06 1.09 1.11 1.12 1.11 1.10 1.11 1.12 1.14 1.15 1.14 1.12 1.11 1.11 1.12 1.16 1.21 1.21 1.22 1.25 1.29 1.30 1.26 1.26 1.29 1.30 1.26 1.26 1.22 1.19 1.21 1.24 1.24 1.20 1.20 1.20 1.16 1.12 1.07 1.04 1.01 1.10 1.09 1.09 1.14 1.20 1.20 1.11 1.08 1.13 1.16 1.19 1.18 1.20 1.25 1.36
1.82 1.75 1.67 1.62 1.62 1.60 1.60 1.57 1.56 1.53 1.50 1.47 1.46 1.42 1.35 1.29 1.21 1.12 1.08 1.04 1.00 0.98 0.98 0.96 0.97 0.95 0.96 0.99 0.99 1.00 1.01 1.03 1.03 1.03 1.03 1.05 1.06 1.06 1.08 1.10 1.10 1.10 1.10 1.09 1.10 1.13 1.17 1.21 1.25 1.26 1.24 1.25 1.25 1.26 1.29 1.28 1.25 1.22 1.21 1.21 1.24 1.22 1.18 1.17 1.17 1.13 1.09 1.04 1.05 1.06 1.02 1.10 1.09 1.00 1.17 1.24 1.18 1.15 1.06 1.04 1.05 1.15 1.18 1.17 1.20
1.85 1.84 1.74 1.64 1.61 1.62 1.62 1.64 1.63 1.61 1.59 1.56 1.52 1.48 1.44 1.40 1.35 1.29 1.20 1.09 1.02 0.98 0.95 0.93 0.94 0.94 0.94 0.95 0.96 0.98 0.98 0.97 0.97 0.97 0.98 0.99 1.00 1.01 1.02 1.02 1.04 1.06 1.06 1.07 1.07 1.08 1.10 1.12 1.17 1.24 1.26 1.27 1.26 1.27 1.28 1.24 1.25 1.19 1.22 1.21 1.20 1.17 1.13 1.15 1.14 1.11 1.07 1.04 1.01 0.98 1.03 1.01 1.05 1.11 1.17 1.18 1.10 1.15 1.19 1.05 0.94 1.00 1.06 1.16 1.24
1.81 1.79 1.74 1.66 1.63 1.66 1.68 1.69 1.69 1.67 1.65 1.61 1.56 1.52 1.48 1.46 1.44 1.40 1.33 1.24 1.15 1.06 1.01 0.98 0.96 0.94 0.94 0.94 0.94 0.96 0.94 0.93 0.94 0.93 0.92 0.94 0.96 0.95 0.97 0.98 0.98 0.99 0.99 1.01 1.04 1.05 1.06 1.07 1.09 1.12 1.20 1.23 1.25 1.27 1.29 1.30 1.25 1.17 1.19 1.19 1.14 1.10 1.08 1.08 1.07 1.06 1.03 1.01 0.98 1.02 0.99 0.98 1.00 1.00 1.01 1.03 1.00 1.00 1.13 1.15 1.03 1.07 1.09 1.10 1.22
1.86 1.80 1.72 1.66 1.66 1.68 1.68 1.69 1.69 1.68 1.65 1.61 1.59 1.58 1.55 1.52 1.48 1.44 1.40 1.36 1.30 1.23 1.13 1.05 0.99 0.95 0.94 0.94 0.95 0.95 0.93 0.93 0.90 0.88 0.90 0.91 0.92 0.92 0.94 0.95 0.95 0.95 0.95 0.95 0.96 1.00 1.02 1.03 1.05 1.05 1.06 1.10 1.15 1.19 1.22 1.26 1.27 1.24 1.20 1.22 1.16 1.10 1.06 1.04 1.02 1.01 0.99 0.95 0.94 0.95 0.92 0.92 0.97 1.03 1.02 1.08 1.16 1.18 1.14 1.15 1.03 1.09 1.08 1.07 1.16
1.91 1.85 1.75 1.73 1.71 1.70 1.68 1.67 1.68 1.65 1.64 1.64 1.63 1.61 1.58 1.56 1.52 1.48 1.45 1.42 1.38 1.34 1.29 1.19 1.08 1.00 0.95 0.92 0.91 0.92 0.92 0.91 0.87 0.87 0.87 0.89 0.93 0.94 0.91 0.92 0.93 0.94 0.93 0.92 0.88 0.90 0.96 1.01 1.03 1.05 1.04 1.04 1.06 1.11 1.15 1.19 1.21 1.21 1.21 1.22 1.24 1.18 1.08 1.02 0.98 0.99 0.96 0.93 0.96 0.97 0.93 0.91 0.96 1.05 1.07 1.12 1.17 1.17 1.14 1.15 1.09 1.07 1.00 0.91 0.86
1.91 1.89 1.87 1.82 1.77 1.72 1.68 1.67 1.67 1.67 1.67 1.64 1.63 1.63 1.62 1.59 1.54 1.51 1.48 1.44 1.42 1.41 1.34 1.28 1.22 1.17 1.09 1.01 0.95 0.91 0.89 0.86 0.84 0.84 0.84 0.86 0.89 0.91 0.93 0.91 0.91 0.91 0.90 0.89 0.88 0.88 0.89 0.94 1.01 1.04 1.05 1.03 1.03 1.08 1.11 1.12 1.14 1.15 1.16 1.18 1.19 1.21 1.20 1.11 1.01 0.98 0.95 0.91 0.90 0.92 0.94 0.93 0.97 1.05 1.08 1.13 1.17 1.20 1.22 1.18 1.13 1.06 1.02 0.97 0.97
1.96 1.93 1.93 1.92 1.84 1.79 1.74 1.71 1.68 1.66 1.67 1.67 1.67 1.67 1.63 1.59 1.55 1.52 1.48 1.48 1.49 1.43 1.37 1.34 1.30 1.28 1.22 1.15 1.08 1.05 0.99 0.94 0.89 0.86 0.84 0.84 0.85 0.88 0.90 0.91 0.88 0.87 0.87 0.87 0.86 0.87 0.89 0.91 0.93 0.99 1.01 1.00 1.03 1.07 1.12 1.14 1.13 1.13 1.14 1.16 1.16 1.15 1.14 1.15 1.16 1.09 1.06 1.01 0.93 0.91 0.93 0.96 0.96 1.01 1.11 1.14 1.24 1.13 1.18 1.16 1.15 1.13 1.11 1.04 1.02
1.99 1.97 1.97 1.97 1.96 1.90 1.83 1.77 1.72 1.70 1.70 1.71 1.71 1.68 1.65 1.60 1.58 1.58 1.58 1.58 1.53 1.47 1.44 1.40 1.37 1.34 1.30 1.24 1.19 1.17 1.13 1.09 1.06 1.02 0.99 0.97 0.96 0.96 0.96 0.95 0.94 0.92 0.91 0.91 0.91 0.91 0.92 0.91 0.91 0.92 0.97 1.01 1.04 1.05 1.08 1.11 1.15 1.15 1.13 1.13 1.11 1.10 1.10 1.11 1.10 1.10 1.10 1.06 1.01 0.92 0.97 1.07 0.98 1.03 1.16 1.24 1.16 1.11 1.15 1.14 1.21 1.16 1.13 1.11 1.19
1.96 1.98 1.97 1.97 1.99 1.99 1.94 1.86 1.80 1.77 1.76 1.75 1.72 1.69 1.67 1.65 1.63 1.63 1.61 1.58 1.54 1.50 1.47 1.43 1.42 1.39 1.36 1.33 1.28 1.24 1.22 1.20 1.17 1.14 1.11 1.09 1.08 1.08 1.08 1.06 1.04 1.02 1.01 1.01 1.00 0.99 0.99 0.99 0.97 0.95 0.98 1.03 1.06 1.06 1.08 1.11 1.14 1.15 1.15 1.13 1.13 1.12 1.12 1.10 1.08 1.08 1.09 1.09 1.07 1.04 1.05 1.11 1.13 1.14 1.19 1.27 1.25 1.24 1.25 1.22 1.25 1.25 1.26 1.30 1.23
1.89 1.95 1.97 1.99 1.98 1.99 1.99 1.96 1.91 1.86 1.82 1.78 1.73 1.69 1.68 1.67 1.64 1.67 1.65 1.63 1.61 1.58 1.55 1.51 1.44 1.41 1.39 1.37 1.32 1.26 1.25 1.25 1.24 1.22 1.20 1.19 1.19 1.19 1.16 1.13 1.09 1.07 1.07 1.08 1.08 1.08 1.07 1.06 1.05 1.03 1.02 1.04 1.06 1.08 1.10 1.16 1.18 1.16 1.13 1.14 1.14 1.15 1.15 1.16 1.17 1.18 1.18 1.18 1.16 1.14 1.13 1.15 1.17 1.17 1.20 1.24 1.29 1.32 1.31 1.29 1.27 1.22 1.14 1.07 0.99
1.83 1.88 1.92 1.96 1.99 2.01 2.01 1.99 1.99 1.96 1.90 1.82 1.75 1.70 1.67 1.67 1.69 1.72 1.65 1.62 1.58 1.55 1.53 1.50 1.49 1.46 1.44 1.42 1.37 1.31 1.29 1.32 1.32 1.30 1.28 1.27 1.27 1.25 1.21 1.18 1.15 1.11 1.08 1.10 1.12 1.12 1.12 1.11 1.10 1.08 1.07 1.06 1.07 1.09 1.12 1.16 1.16 1.16 1.14 1.13 1.14 1.13 1.11 1.18 1.19 1.18 1.19 1.19 1.20 1.18 1.16 1.15 1.14 1.15 1.16 1.19 1.22 1.28 1.25 1.13 1.03 1.10 1.04 0.94 0.98
1.66 1.81 1.88 1.95 1.99 2.04 2.06 2.04 2.01 2.00 2.00 1.91 1.84 1.79 1.76 1.75 1.73 1.75 1.67 1.62 1.58 1.57 1.57 1.56 1.55 1.52 1.47 1.42 1.40 1.35 1.33 1.38 1.40 1.37 1.35 1.34 1.33 1.28 1.25 1.21 1.15 1.13 1.11 1.12 1.14 1.14 1.12 1.11 1.13 1.12 1.08 1.06 1.08 1.10 1.13 1.17 1.15 1.15 1.15 1.12 1.10 1.07 1.07 1.13 1.17 1.18 1.17 1.18 1.18 1.17 1.16 1.15 1.15 1.15 1.16 1.17 1.21 1.26 1.17 0.97 1.05 1.13 1.03 1.02 0.93
1.40 1.54 1.75 1.89 1.96 2.01 2.05 2.07 2.07 2.03 2.01 2.02 1.99 1.90 1.84 1.80 1.80 1.81 1.76 1.71 1.66 1.65 1.63 1.57 1.54 1.54 1.51 1.47 1.46 1.42 1.38 1.41 1.43 1.40 1.38 1.36 1.35 1.32 1.29 1.22 1.14 1.09 1.07 1.07 1.12 1.13 1.12 1.10 1.09 1.09 1.09 1.07 1.07 1.10 1.14 1.17 1.15 1.14 1.15 1.14 1.08 1.05 1.05 1.12 1.12 1.13 1.15 1.09 1.09 1.11 1.11 1.12 1.15 1.16 1.17 1.20 1.23 1.25 1.24 1.16 1.16 1.10 1.01 1.01 1.00
1.29 1.43 1.52 1.66 1.83 1.93 2.01 2.04 2.08 2.09 2.06 2.06 2.09 2.06 2.01 1.93 1.85 1.83 1.81 1.77 1.71 1.68 1.65 1.60 1.54 1.52 1.53 1.51 1.49 1.46 1.42 1.42 1.45 1.43 1.41 1.38 1.36 1.34 1.33 1.24 1.12 1.06 1.07 1.06 1.05 1.09 1.10 1.09 1.08 1.06 1.05 1.05 1.07 1.09 1.12 1.15 1.15 1.15 1.17 1.13 1.07 1.00 1.12 1.16 1.16 1.16 1.17 1.15 1.11 1.12 1.08 1.13 1.18 1.19 1.18 1.19 1.21 1.24 1.26 1.25 1.23 1.18 1.10 1.06 1.04
1.18 1.26 1.40 1.47 1.56 1.68 1.81 1.93 2.02 2.10 2.14 2.12 2.11 2.14 2.14 2.02 1.95 1.89 1.83 1.82 1.77 1.72 1.67 1.63 1.57 1.54 1.54 1.53 1.51 1.50 1.47 1.43 1.47 1.46 1.44 1.40 1.38 1.35 1.32 1.25 1.19 1.14 1.12 1.10 1.08 1.06 1.06 1.05 1.04 1.04 1.03 1.04 1.06 1.09 1.12 1.13 1.15 1.17 1.18 1.11 1.10 1.13 1.21 1.17 1.17 1.17 1.16 1.18 1.17 1.15 1.13 1.11 1.11 1.13 1.15 1.16 1.18 1.20 1.22 1.27 1.29 1.28 1.19 1.10 1.05
1.16 1.16 1.22 1.33 1.41 1.49 1.60 1.71 1.80 1.90 2.03 2.15 2.07 2.09 2.21 2.16 2.10 1.99 1.93 1.86 1.80 1.74 1.72 1.69 1.63 1.58 1.57 1.57 1.54 1.51 1.52 1.49 1.48 1.49 1.47 1.44 1.41 1.39 1.35 1.29 1.27 1.24 1.19 1.15 1.12 1.08 1.05 1.04 1.02 1.02 1.03 1.04 1.06 1.09 1.12 1.14 1.15 1.17 1.15 1.15 1.17 1.20 1.19 1.20 1.21 1.21 1.20 1.18 1.16 1.13 1.09 1.06 1.05 1.06 1.09 1.12 1.15 1.20 1.23 1.25 1.29 1.31 1.31 1.25 1.17
1.15 1.13 1.12 1.17 1.26 1.37 1.45 1.56 1.67 1.76 1.88 2.01 1.97 2.00 2.09 2.12 2.11 2.09 2.01 1.93 1.86 1.79 1.75 1.72 1.67 1.61 1.59 1.59 1.58 1.56 1.55 1.54 1.52 1.51 1.49 1.47 1.45 1.43 1.39 1.36 1.37 1.36 1.24 1.14 1.10 1.08 1.10 1.09 1.07 1.07 1.07 1.07 1.08 1.09 1.13 1.15 1.16 1.14 1.13 1.15 1.17 1.20 1.23 1.23 1.20 1.17 1.15 1.14 1.13 1.08 1.08 1.08 1.05 1.04 1.06 1.08 1.16 1.25 1.30 1.36 1.38 1.35 1.31 1.32 1.33
1.11 1.12 1.11 1.10 1.12 1.22 1.33 1.43 1.54 1.65 1.76 1.91 1.99 1.96 1.98 2.08 2.12 2.11 2.08 2.00 1.92 1.83 1.78 1.75 1.70 1.62 1.57 1.57 1.60 1.60 1.59 1.57 1.56 1.55 1.53 1.50 1.48 1.46 1.44 1.42 1.43 1.39 1.34 1.22 1.19 1.18 1.15 1.12 1.11 1.11 1.11 1.10 1.09 1.11 1.13 1.15 1.14 1.14 1.16 1.17 1.20 1.23 1.25 1.22 1.17 1.15 1.13 1.12 1.10 1.07 1.05 1.07 1.07 1.04 1.06 1.13 1.20 1.31 1.38 1.43 1.42 1.39 1.34 1.34 1.37
1.05 1.06 1.09 1.09 1.09 1.11 1.21 1.28 1.41 1.54 1.62 1.76 1.91 1.97 1.97 2.03 2.05 2.12 2.09 2.06 2.01 1.90 1.84 1.81 1.73 1.68 1.65 1.60 1.59 1.61 1.61 1.61 1.60 1.61 1.60 1.59 1.57 1.55 1.54 1.53 1.51 1.46 1.37 1.30 1.29 1.27 1.25 1.24 1.22 1.19 1.16 1.14 1.14 1.15 1.16 1.14 1.15 1.17 1.20 1.22 1.25 1.25 1.22 1.17 1.15 1.14 1.12 1.09 1.09 1.09 1.07 1.07 1.09 1.13 1.21 1.26 1.32 1.37 1.37 1.38 1.40 1.40 1.41 1.40 1.40
1.00 1.01 1.03 1.05 1.08 1.09 1.10 1.18 1.27 1.41 1.55 1.63 1.77 1.93 2.01 2.05 2.07 2.10 2.09 2.04 2.01 1.95 1.88 1.85 1.81 1.76 1.69 1.66 1.62 1.62 1.65 1.65 1.63 1.67 1.68 1.68 1.66 1.64 1.64 1.65 1.61 1.57 1.52 1.47 1.46 1.45 1.42 1.38 1.33 1.29 1.26 1.22 1.20 1.16 1.13 1.14 1.16 1.19 1.23 1.26 1.27 1.24 1.22 1.18 1.16 1.13 1.11 1.13 1.12 1.08 1.09 1.15 1.16 1.22 1.30 1.34 1.28 1.25 1.30 1.28 1.28 1.25 1.27 1.26 1.25
1.00 1.01 1.00 1.01 1.05 1.10 1.07 1.11 1.18 1.24 1.37 1.54 1.62 1.75 1.88 1.96 2.02 2.06 2.09 2.03 1.99 1.96 1.91 1.86 1.82 1.77 1.72 1.70 1.71 1.72 1.69 1.66 1.64 1.66 1.70 1.70 1.69 1.72 1.74 1.72 1.72 1.71 1.64 1.57 1.57 1.56 1.54 1.50 1.45 1.42 1.37 1.34 1.30 1.27 1.25 1.28 1.26 1.23 1.23 1.24 1.23 1.22 1.22 1.20 1.18 1.17 1.18 1.20 1.19 1.18 1.21 1.26 1.30 1.28 1.23 1.24 1.20 1.24 1.30 1.28 1.24 1.23 1.25 1.24 1.19
0.91 1.00 1.01 1.02 1.01 1.03 1.08 1.09 1.14 1.18 1.21 1.36 1.50 1.58 1.70 1.82 1.86 1.91 1.95 1.97 1.95 1.92 1.89 1.86 1.81 1.77 1.75 1.76 1.78 1.78 1.74 1.70 1.67 1.64 1.67 1.72 1.76 1.80 1.81 1.80 1.79 1.77 1.72 1.70 1.74 1.77 1.71 1.64 1.57 1.50 1.45 1.40 1.38 1.37 1.38 1.39 1.37 1.32 1.28 1.27 1.26 1.25 1.25 1.26 1.28 1.28 1.29 1.32 1.29 1.29 1.29 1.29 1.22 1.20 1.23 1.23 1.23 1.25 1.30 1.26 1.22 1.23 1.27 1.24 1.13
0.80 0.93 1.04 1.04 1.01 1.01 1.03 1.10 1.12 1.16 1.17 1.23 1.37 1.51 1.57 1.65 1.74 1.85 1.99 2.03 2.02 1.97 1.91 1.91 1.92 1.91 1.88 1.86 1.83 1.79 1.75 1.69 1.70 1.81 1.84 1.90 1.91 1.88 1.85 1.83 1.85 1.86 1.88 1.93 1.96 1.96 1.86 1.73 1.61 1.54 1.48 1.43 1.42 1.40 1.41 1.42 1.42 1.42 1.38 1.34 1.31 1.27 1.25 1.23 1.17 1.17 1.23 1.27 1.25 1.24 1.23 1.27 1.24 1.25 1.23 1.21 1.22 1.25 1.32 1.29 1.30 1.28 1.30 1.27 1.16
0.71 0.84 0.96 1.06 1.04 1.01 1.01 1.04 1.10 1.15 1.19 1.18 1.19 1.28 1.50 1.63 1.72 1.74 1.82 1.99 2.03 2.05 2.05 1.98 2.00 2.05 2.00 1.99 2.00 1.88 1.79 1.80 1.88 1.93 1.94 1.96 1.97 1.97 1.97 1.99 1.99 1.99 2.00 2.03 2.01 1.91 1.82 1.72 1.66 1.59 1.55 1.52 1.46 1.44 1.43 1.45 1.44 1.42 1.42 1.40 1.35 1.29 1.25 1.25 1.23 1.23 1.26 1.25 1.26 1.25 1.24 1.26 1.24 1.24 1.22 1.19 1.23 1.27 1.31 1.29 1.28 1.34 1.28 1.21 1.18
0.70 0.76 0.86 0.96 1.06 1.04 1.01 0.99 1.02 1.12 1.18 1.22 1.22 1.16 1.19 1.37 1.56 1.67 1.75 1.83 1.89 1.93 1.96 1.98 2.00 2.04 2.02 1.95 2.04 2.09 2.01 1.98 1.99 1.99 1.97 1.95 1.95 1.96 1.98 2.02 2.04 2.04 2.06 2.00 1.89 1.80 1.76 1.70 1.66 1.66 1.62 1.60 1.55 1.52 1.52 1.51 1.50 1.48 1.47 1.45 1.38 1.31 1.27 1.26 1.26 1.29 1.26 1.22 1.22 1.24 1.27 1.27 1.24 1.24 1.21 1.20 1.21 1.24 1.28 1.30 1.32 1.34 1.29 1.26 1.21
0.71 0.73 0.82 0.86 1.01 1.09 1.12 1.09 1.05 1.08 1.21 1.27 1.28 1.23 1.17 1.15 1.25 1.49 1.64 1.71 1.78 1.83 1.89 1.91 1.93 1.96 2.01 2.00 1.97 1.99 2.01 2.00 2.00 2.00 2.00 1.99 1.97 1.96 1.98 2.02 2.07 2.10 2.10 2.07 1.90 1.79 1.77 1.73 1.71 1.69 1.68 1.63 1.62 1.64 1.63 1.61 1.60 1.59 1.57 1.52 1.42 1.34 1.28 1.24 1.29 1.30 1.27 1.24 1.23 1.24 1.25 1.26 1.25 1.25 1.25 1.25 1.24 1.23 1.24 1.22 1.24 1.28 1.30 1.30 1.26
0.72 0.76 0.80 0.86 0.92 1.10 1.17 1.14 1.12 1.13 1.19 1.32 1.38 1.34 1.23 1.17 1.15 1.18 1.40 1.64 1.71 1.74 1.77 1.83 1.86 1.87 1.88 1.91 1.95 1.92 1.91 1.98 2.01 1.99 1.98 1.98 1.99 1.99 2.01 2.05 2.09 2.12 2.11 1.99 1.85 1.79 1.80 1.78 1.75 1.76 1.74 1.69 1.71 1.71 1.70 1.69 1.67 1.67 1.67 1.60 1.49 1.39 1.33 1.33 1.38 1.37 1.33 1.31 1.30 1.27 1.26 1.26 1.28 1.29 1.28 1.28 1.25 1.20 1.25 1.26 1.30 1.36 1.38 1.34 1.31
0.72 0.76 0.79 0.87 0.90 1.00 1.18 1.18 1.13 1.12 1.17 1.31 1.39 1.40 1.39 1.28 1.23 1.23 1.20 1.22 1.41 1.59 1.68 1.72 1.75 1.78 1.79 1.79 1.76 1.76 1.77 1.81 1.87 1.90 1.93 1.96 2.00 2.03 2.05 2.06 2.09 2.09 2.04 1.93 1.87 1.81 1.83 1.82 1.81 1.80 1.80 1.79 1.78 1.77 1.73 1.72 1.72 1.72 1.72 1.69 1.61 1.52 1.41 1.42 1.39 1.35 1.33 1.33 1.30 1.28 1.27 1.27 1.29 1.26 1.26 1.28 1.31 1.31 1.32 1.35 1.40 1.42 1.42 1.41 1.34
0.70 0.75 0.79 0.85 0.95 1.01 1.14 1.25 1.20 1.16 1.16 1.19 1.34 1.38 1.37 1.35 1.29 1.22 1.18 1.16 1.19 1.26 1.39 1.56 1.67 1.69 1.66 1.68 1.69 1.69 1.70 1.74 1.79 1.83 1.88 1.96 2.04 2.09 2.08 2.00 1.94 1.94 1.93 1.91 1.88 1.86 1.85 1.84 1.83 1.83 1.84 1.81 1.81 1.81 1.78 1.78 1.77 1.74 1.72 1.68 1.63 1.58 1.48 1.39 1.35 1.35 1.31 1.30 1.29 1.27 1.28 1.27 1.29 1.30 1.31 1.31 1.32 1.30 1.32 1.38 1.44 1.52 1.52 1.49 1.43
0.70 0.74 0.77 0.82 0.92 1.06 1.11 1.23 1.25 1.19 1.14 1.13 1.25 1.37 1.37 1.34 1.27 1.24 1.22 1.22 1.22 1.23 1.29 1.40 1.49 1.58 1.63 1.65 1.69 1.70 1.70 1.73 1.74 1.78 1.87 1.99 2.07 2.08 1.96 1.90 1.89 1.88 1.87 1.89 1.89 1.90 1.92 1.92 1.90 1.89 1.90 1.88 1.88 1.86 1.85 1.83 1.81 1.79 1.78 1.72 1.64 1.59 1.53 1.46 1.39 1.35 1.33 1.31 1.30 1.31 1.31 1.30 1.30 1.31 1.35 1.37 1.36 1.36 1.40 1.44 1.51 1.60 1.66 1.63 1.57
0.71 0.74 0.76 0.82 0.91 1.03 1.12 1.17 1.23 1.23 1.17 1.13 1.13 1.27 1.35 1.33 1.27 1.26 1.25 1.23 1.22 1.25 1.30 1.35 1.42 1.46 1.52 1.56 1.64 1.72 1.75 1.75 1.76 1.76 1.83 1.94 2.02 2.05 1.99 1.94 1.91 1.91 1.88 1.88 1.91 1.92 1.90 1.90 1.93 1.93 1.92 1.90 1.91 1.91 1.90 1.87 1.86 1.83 1.80 1.77 1.71 1.64 1.58 1.55 1.50 1.43 1.38 1.35 1.35 1.35 1.33 1.32 1.32 1.33 1.33 1.32 1.38 1.45 1.52 1.57 1.61 1.66 1.68 1.70 1.69
0.72 0.74 0.77 0.84 0.93 1.01 1.08 1.12 1.17 1.22 1.21 1.14 1.09 1.16 1.27 1.32 1.27 1.24 1.24 1.23 1.25 1.26 1.27 1.33 1.38 1.35 1.32 1.40 1.54 1.61 1.69 1.74 1.74 1.71 1.79 1.87 1.89 1.91 1.93 1.94 1.96 1.94 1.92 1.93 1.95 1.95 1.92 1.92 1.93 1.90 1.90 1.92 1.93 1.95 1.92 1.87 1.86 1.84 1.80 1.78 1.76 1.69 1.67 1.66 1.63 1.58 1.49 1.43 1.39 1.37 1.35 1.33 1.35 1.37 1.39 1.41 1.44 1.50 1.58 1.65 1.68 1.68 1.70 1.74 1.72
0.72 0.75 0.80 0.88 0.95 1.00 1.04 1.07 1.12 1.16 1.21 1.18 1.11 1.09 1.19 1.25 1.27 1.22 1.23 1.25 1.29 1.29 1.30 1.34 1.36 1.37 1.40 1.51 1.49 1.51 1.53 1.53 1.55 1.58 1.71 1.82 1.89 1.92 1.92 1.93 1.95 1.95 1.96 1.94 1.96 1.96 1.94 1.90 1.89 1.88 1.88 1.89 1.89 1.90 1.90 1.87 1.85 1.83 1.80 1.78 1.76 1.73 1.70 1.69 1.68 1.66 1.59 1.52 1.50 1.51 1.48 1.45 1.48 1.51 1.53 1.52 1.53 1.57 1.63 1.70 1.75 1.74 1.72 1.73 1.73
0.72 0.77 0.84 0.91 0.95 0.99 1.02 1.02 1.06 1.12 1.17 1.21 1.14 1.08 1.13 1.22 1.24 1.22 1.22 1.23 1.25 1.33 1.36 1.32 1.32 1.37 1.47 1.52 1.51 1.52 1.47 1.48 1.52 1.58 1.66 1.71 1.76 1.82 1.85 1.86 1.89 1.90 1.89 1.90 1.93 1.94 1.93 1.92 1.92 1.88 1.86 1.89 1.86 1.82 1.83 1.84 1.83 1.81 1.82 1.82 1.80 1.79 1.78 1.79 1.77 1.74 1.70 1.68 1.64 1.62 1.61 1.58 1.58 1.59 1.60 1.59 1.60 1.65 1.68 1.69 1.70 1.72 1.74 1.75 1.79
0.74 0.79 0.86 0.92 0.96 0.97 0.98 0.98 0.98 1.03 1.12 1.22 1.20 1.09 1.05 1.16 1.23 1.21 1.19 1.20 1.23 1.26 1.33 1.36 1.37 1.43 1.52 1.54 1.56 1.56 1.53 1.51 1.54 1.58 1.61 1.64 1.68 1.72 1.75 1.79 1.85 1.88 1.90 1.91 1.94 1.98 2.00 1.99 1.97 1.94 1.90 1.84 1.79 1.80 1.85 1.87 1.85 1.82 1.79 1.81 1.82 1.83 1.83 1.81 1.83 1.83 1.82 1.77 1.71 1.69 1.68 1.66 1.65 1.65 1.62 1.66 1.72 1.77 1.77 1.77 1.74 1.74 1.77 1.80 1.83
0.76 0.81 0.86 0.91 0.95 0.95 0.94 0.95 0.97 1.01 1.07 1.14 1.22 1.14 1.05 1.11 1.20 1.18 1.15 1.16 1.21 1.26 1.29 1.34 1.40 1.47 1.53 1.54 1.54 1.56 1.54 1.55 1.59 1.60 1.62 1.63 1.63 1.66 1.72 1.78 1.85 1.88 1.89 1.93 1.97 1.98 2.01 2.01 1.99 1.96 1.92 1.87 1.85 1.82 1.86 1.89 1.89 1.88 1.87 1.83 1.81 1.84 1.85 1.83 1.84 1.87 1.85 1.81 1.77 1.75 1.74 1.75 1.75 1.76 1.76 1.77 1.78 1.80 1.81 1.81 1.83 1.82 1.81 1.88 1.91
0.80 0.83 0.87 0.92 0.93 0.93 0.93 0.95 0.98 0.99 1.02 1.05 1.14 1.20 1.11 1.08 1.13 1.17 1.13 1.15 1.19 1.25 1.28 1.29 1.35 1.42 1.46 1.49 1.51 1.52 1.52 1.54 1.55 1.58 1.61 1.66 1.68 1.69 1.71 1.74 1.79 1.84 1.88 1.92 1.96 1.99 1.99 1.95 1.92 1.92 1.94 1.97 1.97 1.94 1.91 1.88 1.90 1.91 1.88 1.84 1.84 1.83 1.84 1.88 1.91 1.91 1.91 1.87 1.82 1.81 1.86 1.88 1.84 1.80 1.79 1.79 1.80 1.79 1.77 1.77 1.78 1.79 1.80 1.78 1.81
0.82 0.85 0.90 0.93 0.95 0.96 0.96 0.96 0.96 0.98 1.02 1.05 1.07 1.13 1.14 1.08 1.08 1.16 1.13 1.12 1.16 1.22 1.28 1.32 1.35 1.38 1.40 1.41 1.43 1.45 1.46 1.50 1.54 1.56 1.58 1.60 1.61 1.63 1.65 1.69 1.73 1.78 1.84 1.89 1.91 1.93 1.97 1.93 1.90 1.94 1.97 1.96 1.94 1.92 1.89 1.86 1.85 1.84 1.85 1.85 1.81 1.79 1.81 1.87 1.92 1.93 1.91 1.91 1.90 1.88 1.88 1.89 1.90 1.88 1.83 1.81 1.80 1.76 1.74 1.74 1.75 1.75 1.77 1.75 1.78
0.84 0.86 0.90 0.93 0.95 0.95 0.95 0.97 0.97 0.98 1.01 1.03 1.04 1.06 1.09 1.10 1.06 1.06 1.13 1.12 1.12 1.18 1.25 1.29 1.34 1.37 1.38 1.37 1.36 1.38 1.42 1.45 1.46 1.48 1.49 1.50 1.50 1.51 1.54 1.58 1.62 1.67 1.73 1.78 1.81 1.84 1.86 1.87 1.84 1.85 1.85 1.87 1.89 1.88 1.89 1.91 1.91 1.90 1.89 1.85 1.77 1.74 1.75 1.78 1.84 1.95 2.00 1.98 1.96 1.90 1.93 1.93 1.88 1.88 1.87 1.87 1.86 1.83 1.77 1.74 1.74 1.75 1.75 1.72 1.66
0.87 0.90 0.93 0.94 0.94 0.95 0.95 0.95 0.96 0.97 0.98 0.99 1.00 1.00 1.03 1.07 1.09 1.07 1.08 1.14 1.13 1.14 1.20 1.23 1.26 1.30 1.31 1.31 1.31 1.32 1.35 1.38 1.40 1.41 1.40 1.41 1.42 1.42 1.43 1.44 1.46 1.53 1.60 1.64 1.67 1.70 1.73 1.76 1.80 1.80 1.79 1.79 1.80 1.82 1.84 1.86 1.86 1.85 1.85 1.89 1.92 1.90 1.85 1.83 1.90 2.01 2.06 2.04 1.98 2.01 2.04 2.01 1.96 1.91 1.87 1.86 1.86 1.85 1.77 1.75 1.76 1.75 1.72 1.68 1.66
0.89 0.94 0.99 0.99 0.96 0.96 0.95 0.96 0.96 0.96 0.98 0.99 0.99 0.99 1.01 1.04 1.06 1.07 1.06 1.10 1.15 1.15 1.17 1.20 1.23 1.26 1.28 1.30 1.30 1.30 1.32 1.34 1.37 1.39 1.38 1.37 1.39 1.40 1.40 1.40 1.39 1.39 1.42 1.48 1.54 1.64 1.72 1.73 1.70 1.69 1.69 1.68 1.69 1.69 1.71 1.73 1.73 1.72 1.73 1.78 1.86 1.96 2.02 1.97 1.93 1.95 1.95 1.91 1.94 1.94 1.93 1.92 1.89 1.83 1.81 1.82 1.81 1.79 1.78 1.74 1.71 1.70 1.69 1.62 1.61
0.91 0.95 1.00 1.02 1.00 0.97 0.97 0.96 0.94 0.96 0.98 0.98 0.99 1.00 1.02 1.04 1.05 1.06 1.06 1.07 1.13 1.17 1.15 1.17 1.19 1.20 1.22 1.24 1.26 1.28 1.29 1.32 1.35 1.37 1.37 1.37 1.38 1.38 1.37 1.37 1.37 1.36 1.35 1.37 1.41 1.45 1.48 1.51 1.55 1.57 1.59 1.61 1.61 1.61 1.62 1.64 1.65 1.66 1.68 1.72 1.79 1.87 1.90 1.89 1.89 1.90 1.93 1.92 1.91 1.86 1.82 1.80 1.81 1.81 1.79 1.77 1.75 1.74 1.71 1.68 1.67 1.65 1.61 1.57 1.57
0.91 0.95 1.00 1.03 1.01 1.00 1.00 0.98 0.94 0.94 0.97 0.99 1.00 1.00 1.01 1.03 1.04 1.05 1.07 1.08 1.11 1.14 1.14 1.14 1.15 1.15 1.15 1.16 1.19 1.23 1.26 1.27 1.30 1.32 1.31 1.33 1.35 1.37 1.38 1.39 1.38 1.36 1.34 1.33 1.33 1.34 1.37 1.41 1.46 1.50 1.53 1.55 1.56 1.56 1.55 1.55 1.56 1.57 1.60 1.64 1.69 1.74 1.78 1.82 1.84 1.87 1.90 1.90 1.86 1.82 1.81 1.79 1.74 1.72 1.74 1.74 1.74 1.74 1.72 1.67 1.61 1.56 1.53 1.54 1.55
0.92 0.96 0.99 1.02 1.03 1.04 1.05 1.03 0.97 0.96 0.98 1.00 1.00 1.00 1.00 1.00 1.01 1.03 1.06 1.08 1.10 1.12 1.13 1.12 1.12 1.12 1.11 1.11 1.13 1.16 1.18 1.18 1.19 1.20 1.23 1.26 1.28 1.30 1.31 1.33 1.35 1.36 1.35 1.35 1.36 1.37 1.37 1.37 1.38 1.38 1.40 1.42 1.44 1.44 1.43 1.44 1.46 1.48 1.50 1.54 1.60 1.65 1.70 1.75 1.80 1.84 1.84 1.81 1.77 1.71 1.66 1.68 1.68 1.67 1.68 1.68 1.68 1.67 1.63 1.60 1.57 1.56 1.56 1.57 1.56
0.92 0.96 0.99 1.00 1.00 1.01 1.03 1.03 0.99 0.98 0.97 0.97 0.97 0.97 0.97 0.97 0.97 0.99 1.01 1.03 1.04 1.05 1.07 1.07 1.07 1.07 1.08 1.08 1.09 1.09 1.13 1.15 1.14 1.14 1.14 1.17 1.21 1.24 1.24 1.25 1.26 1.29 1.33 1.35 1.37 1.38 1.39 1.40 1.39 1.36 1.33 1.31 1.31 1.32 1.33 1.33 1.34 1.36 1.40 1.45 1.52 1.58 1.62 1.66 1.68 1.71 1.74 1.76 1.72 1.66 1.61 1.60 1.60 1.60 1.63 1.65 1.65 1.63 1.61 1.58 1.56 1.53 1.51 1.49 1.47
Wind_Speed
25 24 23 23 23 23 23 23 22 22 22 22 22 22 21 21 20 20 19 19 18 17 16 16 15 15 14 14 13 12 12 12 11 11 10 10 9 8 8 8 8 7 7 7 6 6 6 6 6 6 6 6 6 6 7 7 8 8 9 9 9 8 8 8 8 8 7 7 7 7 7 7 7 7 7 8 8 9 10 10 10 10 10 10 10
26 25 24 24 24 23 23 23 23 23 22 22 22 22 22 22 21 21 21 20 19 19 18 17 17 16 15 15 14 13 13 12 12 12 11 11 10 9 9 9 8 8 8 8 7 7 7 7 7 7 7 7 7 7 7 8 8 8 9 9 9 9 9 9 9 9 9 9 8 8 8 8 8 8 8 9 9 10 10 10 10 10 10 10 10
26 26 26 25 25 24 24 23 23 23 23 23 23 23 23 22 22 22 22 21 21 20 19 19 18 17 17 16 16 15 14 14 13 13 12 12 11 10 10 9 9 9 9 8 8 8 8 8 8 8 7 8 8 8 8 8 9 9 9 10 10 10 10 10 10 10 11 11 10 10 9 9 9 10 10 10 9 10 10 10 10 10 10 10 10
25 26 26 26 26 25 24 24 24 24 24 23 23 23 23 23 23 23 23 22 22 21 20 20 19 19 18 18 17 16 16 15 15 14 13 13 12 11 11 10 10 10 10 9 9 9 9 9 9 9 8 9 9 9 9 9 10 10 10 10 11 11 11 11 11 11 12 12 12 11 11 11 11 11 11 11 11 11 11 11 11 10 10 11 11
25 26 27 27 26 26 26 25 25 25 25 24 24 24 23 23 23 24 23 23 23 22 22 21 21 20 19 19 18 18 17 17 16 16 15 14 14 13 12 12 11 11 11 11 10 10 10 10 10 10 10 10 10 10 10 10 10 11 11 11 11 12 12 12 12 12 13 13 13 13 13 13 13 13 13 12 12 12 12 12 12 11 11 11 11
24 25 26 27 27 27 26 26 26 26 26 25 25 24 24 24 24 24 24 24 24 23 23 22 22 22 21 20 19 19 18 18 18 17 17 16 15 15 14 13 13 12 12 12 12 12 12 12 11 11 11 11 11 11 11 11 11 11 12 12 12 12 13 13 13 14 14 14 14 14 14 14 14 14 14 14 14 13 13 12 12 13 13 12 12
25 25 26 27 28 27 27 26 26 26 26 26 26 25 25 25 24 24 25 25 25 25 24 24 23 23 22 22 21 20 19 19 19 19 18 18 17 16 16 15 15 14 14 13 13 13 13 13 13 13 13 13 13 12 12 12 12 12 13 13 13 13 13 13 14 14 15 15 15 15 15 14 14 15 15 15 14 14 13 13 13 13 13 13 13
26 25 26 27 28 28 27 27 27 27 27 27 27 27 26 26 26 25 25 26 26 26 26 25 25 25 24 23 23 22 21 21 21 20 20 20 19 18 18 17 17 16 16 15 15 15 15 14 14 14 14 14 14 14 14 14 14 14 14 14 14 14 14 14 14 14 15 15 15 15 15 15 15 15 16 15 15 15 14 15 14 14 14 14 14
26 26 26 26 27 28 28 27 27 27 28 28 28 28 27 27 27 27 26 26 26 26 27 27 26 26 26 25 24 24 23 23 22 22 22 21 21 20 20 19 19 18 18 17 17 17 16 16 16 16 16 16 16 16 15 15 15 15 15 15 15 15 15 15 15 15 15 15 16 16 16 16 15 16 16 16 16 15 15 16 15 15 15 15 15
25 26 26 26 26 27 28 28 28 28 28 28 28 28 28 28 28 28 28 27 27 27 27 27 27 27 27 27 26 25 25 24 24 23 23 23 22 22 22 21 21 20 20 19 19 18 18 18 18 18 18 17 17 17 17 17 17 17 17 17 17 17 17 16 16 16 16 16 16 16 16 16 16 16 16 16 16 16 16 16 16 16 16 16 16
23 25 26 26 26 27 28 29 29 29 29 29 29 29 29 29 29 29 29 28 28 28 28 28 28 28 28 28 28 27 27 26 26 25 25 24 24 23 23 23 22 22 21 21 21 20 20 19 19 19 19 19 19 19 19 19 19 19 19 19 19 19 18 18 18 18 18 18 18 17 17 17 17 17 17 17 17 16 16 16 17 17 17 17 17
23 23 25 26 27 27 27 28 29 29 29 29 29 29 29 29 29 29 29 29 29 29 29 29 29 28 28 28 28 28 28 28 28 27 26 26 25 25 25 24 24 23 23 23 22 22 21 21 20 20 20 20 20 20 20 20 20 20 20 20 20 20 20 20 19 19 18 19 19 18 18 18 18 18 18 18 18 17 17 17 17 17 18 18 18
22 23 24 25 26 27 27 27 28 29 30 30 30 30 30 30 30 29 29 29 29 29 29 29 29 29 29 29 29 29 29 29 29 28 28 28 27 27 26 26 25 25 25 24 24 24 23 22 22 21 21 21 21 21 21 21 21 21 21 21 21 21 21 21 20 20 20 19 20 20 19 19 19 19 19 19 19 19 19 18 18 18 18 18 19
21 22 23 24 26 27 28 28 28 28 29 30 30 30 30 30 30 30 29 29 30 30 30 30 30 30 29 29 29 29 29 29 29 29 29 29 29 28 28 27 27 26 26 26 26 25 25 24 24 23 23 23 23 22 22 22 22 22 21 22 22 22 21 21 21 21 21 20 21 21 20 20 20 20 20 20 20 20 20 20 19 19 19 19 20
21 22 22 23 24 26 27 28 28 28 29 29 30 31 31 31 31 30 30 30 30 30 30 30 30 30 30 30 29 29 29 29 29 29 29 30 29 29 28 28 28 28 27 27 27 27 27 26 26 25 25 24 24 24 23 23 23 22 22 22 22 22 22 22 21 21 21 21 21 21 21 20 20 21 20 20 21 21 21 21 21 20 20 20 20
21 22 22 23 24 25 26 27 28 29 29 29 30 30 31 31 31 31 30 30 30 30 30 30 30 30 30 30 30 29 29 29 29 29 29 29 29 29 29 29 29 29 28 28 28 28 28 28 27 27 27 26 26 25 25 24 23 23 23 23 23 23 23 22 22 22 21 21 21 21 21 21 21 21 21 21 21 21 21 21 21 21 21 21 21
21 22 22 23 24 24 25 26 27 28 29 29 30 30 30 31 31 31 31 31 30 30 30 30 30 30 30 30 30 30 30 30 30 30 30 29 29 29 29 29 29 29 29 29 29 29 29 29 29 28 28 28 27 26 26 25 25 24 24 23 23 23 23 23 23 23 23 23 22 22 22 22 22 22 22 22 22 21 21 21 21 21 20 21 20
21 22 22 24 24 25 25 26 27 27 28 29 30 30 30 31 31 31 31 32 32 31 30 30 30 30 30 30 30 30 30 30 30 30 30 30 29 29 29 29 29 30 30 30 29 29 29 30 29 29 29 29 28 28 27 26 26 25 25 24 24 24 24 23 23 23 23 24 24 23 23 23 23 23 23 23 22 21 21 21 21 20 20 20 20
22 22 23 24 25 26 26 26 27 28 28 29 29 30 30 31 31 31 31 32 32 32 31 31 30 30 30 30 30 30 30 29 29 30 30 30 30 29 29 29 29 29 29 29 29 29 30 30 30 30 30 29 29 28 28 27 27 26 26 25 25 25 25 24 23 23 23 23 23 24 23 24 23 23 23 23 22 22 22 22 21 21 21 21 20
23 23 23 24 25 26 27 28 28 28 29 29 29 30 30 30 31 31 31 31 32 32 32 32 31 31 30 30 30 30 30 29 29 30 30 30 30 30 29 29 29 29 29 29 29 29 29 30 30 30 30 30 29 29 28 28 28 27 26 26 26 26 25 25 25 25 24 24 24 24 24 24 23 23 23 23 23 22 22 22 22 21 21 21 21
25 24 24 25 25 26 28 29 30 30 30 31 31 31 31 30 30 31 31 31 32 32 32 32 32 32 31 31 30 30 30 30 30 30 30 30 30 30 30 30 30 30 29 29 29 29 29 29 30 30 30 30 30 29 29 29 29 28 27 27 27 27 27 26 26 26 25 25 25 24 24 24 24 24 24 24 23 23 23 23 23 23 22 22 22
27 26 26 25 26 27 28 29 31 32 32 32 32 32 31 30 30 30 30 31 31 32 32 32 32 32 32 31 31 31 31 31 30 30 30 30 31 30 30 30 30 30 29 29 29 29 29 29 30 30 30 30 30 29 29 29 28 28 28 28 28 27 27 27 26 26 25 25 25 25 25 24 24 24 24 24 24 24 24 24 24 24 24 23 23
29 28 28 27 27 27 28 30 31 32 33 32 32 31 30 30 30 30 30 30 30 31 32 32 32 32 31 31 31 31 31 31 31 31 31 31 31 31 31 31 30 30 30 29 30 30 30 30 30 30 29 29 29 29 28 28 28 28 28 28 28 27 27 27 27 26 26 26 26 26 26 25 25 25 25 25 25 25 24 24 25 25 25 25 24
30 30 29 29 28 28 29 30 30 31 31 32 32 31 30 30 30 30 30 30 30 30 31 31 31 31 31 30 30 30 30 30 31 31 31 31 31 31 31 31 30 30 30 29 29 29 29 29 29 29 29 28 28 28 28 28 28 28 28 28 28 27 26 26 27 26 26 26 26 26 26 26 26 26 26 26 26 26 26 26 26 26 25 25 25
33 32 31 30 30 30 29 30 30 30 30 31 32 32 32 31 31 31 31 31 30 30 30 30 30 30 30 29 29 29 29 29 29 29 30 30 30 30 30 30 30 30 29 29 28 28 28 28 28 28 28 28 28 27 28 28 28 28 28 28 27 27 27 27 27 27 27 27 27 27 27 27 27 27 27 27 27 27 27 27 26 26 26 26 26
35 34 33 32 32 31 31 30 30 30 30 30 32 33 32 32 33 32 32 31 31 30 30 30 30 29 29 29 28 28 28 28 28 28 29 29 29 29 29 29 29 29 29 29 29 28 28 27 27 27 27 27 27 27 27 28 28 28 28 28 28 28 28 28 27 27 27 28 28 27 27 27 27 27 27 27 27 27 27 27 26 26 26 26 26
36 36 35 35 33 33 33 32 31 31 31 30 31 32 33 33 34 34 33 32 31 31 31 31 31 30 29 29 29 29 29 29 28 28 28 28 28 29 29 29 29 29 29 29 29 29 29 28 27 27 27 27 27 27 27 27 27 28 28 29 29 29 29 29 28 28 28 28 28 28 27 27 27 27 27 27 27 27 27 27 27 26 26 26 25
38 37 37 37 35 34 34 34 33 32 31 31 31 32 33 33 34 35 35 34 33 32 32 32 32 31 31 30 30 30 29 29 29 28 28 28 28 28 28 28 29 29 29 29 30 30 29 28 27 27 27 27 27 27 27 27 27 27 28 28 29 30 30 30 30 29 29 29 29 28 28 28 28 28 28 28 28 28 28 27 27 27 26 26 26
40 39 38 38 38 36 36 35 35 33 32 32 32 32 33 33 34 35 36 36 35 34 33 33 33 32 32 32 31 31 30 30 29 29 29 29 29 28 28 29 29 29 30 30 30 29 29 28 27 27 27 27 27 27 27 27 27 27 27 28 28 29 30 31 31 30 30 29 29 29 29 29 28 28 28 28 29 28 28 28 28 27 27 27 27
42 41 40 39 39 38 37 36 36 35 34 34 33 33 33 34 35 35 36 37 38 37 36 36 35 34 33 33 33 33 32 32 31 30 30 30 30 30 30 30 30 30 30 30 29 29 29 29 28 28 28 28 28 28 28 28 27 27 27 28 28 29 30 30 31 31 30 30 30 29 29 29 29 29 29 29 29 29 29 28 28 28 28 27 27
43 43 42 41 40 39 38 37 37 37 36 35 34 34 34 34 35 36 36 38 39 40 40 40 39 38 37 36 35 34 34 34 33 32 32 32 32 32 31 31 31 31 31 30 29 29 29 28 29 29 29 29 29 29 29 29 28 28 28 28 28 29 29 30 30 31 31 31 31 30 30 30 30 30 30 30 29 29 30 29 29 29 29 28 28
45 44 43 43 42 41 39 38 38 38 37 37 36 35 35 35 34 35 36 37 38 39 40 41 41 41 40 40 38 37 36 35 35 34 34 34 34 33 33 32 32 32 31 30 30 30 29 29 29 29 29 29 29 29 29 30 30 29 29 29 29 29 30 30 31 31 32 31 31 31 31 31 32 31 31 31 30 30 30 30 30 30 29 29 29
46 45 44 43 43 43 42 40 39 38 38 38 37 35 34 35 34 34 35 36 37 38 39 39 40 40 40 41 41 40 39 37 36 36 36 36 36 35 35 34 33 33 32 31 31 30 29 29 29 29 29 30 30 29 30 30 30 30 30 30 29 30 30 31 31 32 32 32 32 31 32 32 32 32 32 31 31 31 31 31 31 30 30 30 30
48 46 45 44 44 44 44 42 41 39 39 39 39 37 35 35 35 35 35 35 36 36 37 37 38 38 39 39 40 40 40 40 39 38 38 38 38 37 36 35 34 34 33 33 32 31 31 31 30 30 30 30 31 30 30 30 31 31 30 30 30 30 30 31 31 32 32 32 32 32 32 32 32 32 31 31 31 31 32 32 31 31 31 31 31
49 48 46 45 44 44 45 44 42 41 40 39 39 39 38 37 37 37 36 36 36 36 36 36 36 37 37 37 38 38 39 40 40 40 40 39 38 38 37 37 36 35 35 35 34 33 32 32 31 31 31 31 31 31 31 31 31 31 31 31 30 30 30 30 31 31 32 32 32 33 32 32 32 32 32 32 32 32 32 32 31 31 31 32 32
49 48 47 46 45 44 44 45 44 43 41 40 40 40 39 38 38 37 37 37 37 37 37 36 35 35 36 36 37 37 37 38 39 40 40 40 39 38 38 38 37 37 36 36 36 35 34 33 33 32 33 32 32 33 33 33 32 32 32 31 31 30 30 30 31 31 31 32 33 33 32 32 33 32 32 32 32 32 32 32 32 32 32 33 33
50 48 47 46 45 45 44 45 45 45 43 42 41 40 40 39 39 38 38 37 37 37 38 37 35 35 35 35 35 36 36 36 37 38 38 39 39 40 40 39 38 37 37 37 37 37 36 35 35 34 34 33 33 33 33 33 33 33 33 33 32 31 31 31 31 31 31 32 32 33 33 33 33 33 33 33 32 32 32 32 33 33 33 34 34
50 49 48 47 46 45 45 44 45 45 44 43 42 41 40 40 40 39 39 38 37 37 37 37 36 35 34 34 33 34 34 34 35 36 36 37 38 39 40 39 38 38 38 38 38 38 37 37 36 36 35 34 34 34 33 33 33 33 34 34 33 33 33 32 32 32 32 33 33 33 33 33 33 33 33 33 33 33 32 33 33 33 33 34 34
50 50 49 48 47 47 46 45 45 45 44 44 43 42 41 41 41 40 39 38 37 37 37 36 36 35 34 33 33 33 33 33 33 34 35 36 36 37 38 37 37 37 37 37 37 38 37 37 36 36 36 35 34 34 34 34 33 33 34 34 34 34 33 33 33 34 34 34 34 34 33 33 34 34 34 34 34 34 34 34 34 34 33 34 35
50 49 49 48 47 47 47 47 46 45 44 44 43 43 42 41 41 40 39 38 38 36 36 36 36 35 34 33 34 34 33 33 33 33 34 34 35 36 36 36 36 36 37 37 37 37 37 37 36 36 36 36 36 36 36 35 35 35 35 35 35 34 34 34 35 36 36 35 35 35 34 34 34 35 35 35 35 35 35 35 35 35 35 35 36
49 49 48 48 47 47 47 47 46 46 45 45 44 44 43 43 42 41 40 39 39 37 36 36 36 35 35 34 34 35 35 34 34 34 34 34 35 35 36 36 36 36 36 36 37 37 37 37 37 37 37 37 37 37 37 37 36 36 36 36 36 36 36 36 37 37 37 36 36 36 36 35 36 36 37 36 36 36 36 36 36 36 37 37 37
48 48 48 47 46 46 46 46 46 45 45 45 45 45 44 43 43 42 41 40 40 39 38 37 36 36 36 36 36 36 36 35 35 35 35 36 36 36 36 36 36 36 36 36 37 37 38 38 38 38 38 38 38 38 38 38 38 37 37 37 37 37 37 38 38 38 38 38 38 38 37 37 37 37 37 37 37 37 36 36 36 36 36 36 36
48 48 47 47 46 46 45 45 45 44 44 45 45 45 44 44 43 43 42 41 40 40 40 39 37 36 36 36 37 36 36 36 36 37 37 37 37 37 36 36 36 36 36 37 37 38 39 39 39 39 39 39 39 39 39 39 39 39 39 39 39 39 40 40 40 40 39 39 39 38 38 38 37 37 37 37 37 36 36 36 36 35 35 35 35
47 47 47 46 46 45 44 44 43 43 43 43 44 44 44 43 43 43 42 41 40 40 40 39 39 38 37 36 36 36 36 37 37 38 38 38 38 37 37 37 37 37 37 37 38 39 40 40 40 40 40 40 39 40 40 40 40 39 40 40 41 41 42 42 42 42 41 41 40 39 38 38 37 37 37 37 36 36 36 36 35 35 34 34 34
47 46 46 45 45 44 43 42 42 42 42 42 42 42 42 42 42 42 42 41 40 39 38 38 37 37 37 36 35 35 35 35 36 37 38 38 38 38 38 38 38 38 38 38 39 40 40 40 40 40 40 40 40 40 41 40 40 40 40 40 41 42 42 43 44 44 44 43 41 39 38 38 38 38 38 37 36 36 35 35 34 34 33 32 33
45 45 44 44 44 44 43 42 41 40 40 40 40 40 41 41 41 41 41 40 39 38 37 36 35 35 36 36 35 35 35 35 35 36 36 37 37 37 38 37 38 38 38 39 39 40 40 40 40 40 40 40 40 40 41 41 41 41 41 41 42 42 42 42 42 43 43 41 39 38 37 37 37 37 37 36 35 35 34 33 33 33 32 31 31
44 44 44 44 44 43 43 42 41 40 39 38 38 39 39 40 39 39 39 39 38 37 36 35 34 34 34 35 35 35 35 35 34 34 35 35 36 36 37 37 37 38 38 38 39 39 39 40 40 39 39 39 39 40 40 40 40 41 41 41 42 42 41 40 40 41 40 38 36 36 35 35 34 34 35 34 34 33 32 31 31 31 31 30 29
42 43 43 42 42 43 42 42 41 40 39 38 37 37 37 38 38 38 38 38 38 37 36 35 34 33 33 33 33 34 34 34 33 33 33 34 34 35 35 35 36 37 37 37 38 38 39 39 39 39 39 39 39 39 39 39 39 39 40 40 40 40 40 39 39 39 38 36 35 35 34 34 34 33 33 32 31 30 29 29 29 30 30 29 29
41 41 41 40 40 41 41 41 41 40 39 38 36 36 36 36 36 36 36 37 37 36 36 35 34 34 33 33 32 33 33 33 32 32 32 33 33 33 34 34 34 35 35 35 36 37 37 38 38 38 38 39 38 38 37 37 37 37 38 38 38 37 37 37 37 37 36 35 34 33 32 31 31 31 30 30 30 28 27 27 28 29 29 29 29
38 39 39 39 39 39 39 39 40 40 39 38 36 35 35 36 35 35 35 35 36 36 36 36 36 35 34 33 33 32 32 32 32 31 31 31 32 32 32 32 32 32 33 33 34 34 35 35 35 35 36 36 36 35 35 35 34 34 34 34 34 34 33 34 34 33 33 33 32 31 30 29 28 28 28 27 27 27 27 27 28 28 28 27 26
36 36 37 37 38 38 37 37 38 38 38 38 37 36 35 35 35 35 34 35 35 36 36 37 37 36 35 34 33 32 31 31 31 30 29 29 29 30 30 30 30 30 30 30 31 31 31 31 31 31 31 31 32 32 31 31 31 30 30 29 30 30 30 30 30 30 30 29 29 28 28 28 28 27 26 26 26 26 26 26 26 26 26 26 26
Wind_Direction
214 214 214 214 213 213 214 215 216 215 213 212 213 213 214 215 215 215 215 216 216 216 216 215 215 214 215 214 213 212 212 211 212 213 214 215 215 216 216 216 216 215 215 215 215 216 218 219 220 219 221 222 222 222 221 220 221 222 224 227 230 233 237 242 252 262 266 267 272 280 287 293 300 309 317 321 327 334 337 339 341 340 341 342 345
214 215 215 215 215 214 214 215 216 216 215 215 215 215 216 216 217 217 217 218 218 218 217 217 216 216 217 217 217 216 216 215 215 216 217 219 219 220 221 222 223 222 222 223 223 225 227 229 230 229 229 231 233 233 232 229 228 229 230 232 235 237 241 246 253 261 267 269 272 277 281 286 292 299 307 313 319 326 331 335 337 337 337 338 340
215 215 216 216 216 216 215 215 216 217 216 216 216 217 217 218 218 218 219 220 219 220 219 218 218 218 219 220 220 220 220 219 219 219 220 221 221 222 223 225 227 227 228 229 230 232 233 235 236 235 235 236 238 239 240 239 238 238 238 238 240 242 244 248 252 259 266 270 272 275 278 282 287 292 299 304 309 317 323 327 330 331 332 333 334
216 217 217 217 217 217 216 216 217 217 218 218 218 218 218 218 219 220 221 221 221 221 220 220 220 219 220 222 222 223 223 223 222 223 223 224 224 225 226 228 229 230 232 234 236 237 239 240 240 239 240 241 241 242 243 245 245 246 246 245 246 247 248 250 253 257 264 269 272 275 278 281 285 288 293 296 300 306 313 318 321 322 324 325 327
217 217 218 219 218 218 218 218 218 218 219 219 219 219 219 219 220 221 222 222 222 223 222 222 221 221 222 223 224 225 225 225 225 226 227 228 229 230 231 232 233 235 236 238 239 241 244 245 245 244 244 245 245 244 245 246 248 249 250 251 250 251 252 254 256 258 262 268 272 276 279 282 285 287 290 292 296 299 305 309 312 313 315 317 319
219 219 219 219 220 220 219 219 219 220 220 221 220 220 220 220 221 222 223 223 223 224 224 224 224 223 224 224 225 226 226 226 227 228 230 232 233 234 235 236 238 239 241 242 243 245 246 248 249 248 247 248 248 248 248 249 251 251 253 254 254 255 256 258 259 261 263 267 271 275 279 281 284 287 288 291 294 297 300 304 305 307 309 311 312
221 221 221 220 221 221 221 220 221 221 222 222 222 222 221 221 222 222 224 225 225 225 225 225 226 226 226 227 227 228 228 228 229 230 232 234 235 236 237 239 240 242 244 245 246 247 248 250 251 250 250 251 251 252 253 253 253 254 255 256 257 257 260 261 262 263 264 267 270 274 277 279 282 285 287 289 291 292 295 300 302 304 306 308 308
222 223 223 222 222 222 222 222 222 223 224 224 224 224 223 223 223 223 224 225 226 226 226 226 227 228 228 229 230 230 231 231 232 233 234 236 237 239 240 241 242 243 245 247 248 249 250 251 252 252 253 253 254 255 256 256 257 257 258 259 259 259 261 263 264 265 267 269 271 273 276 278 280 282 285 286 287 287 290 295 298 300 303 306 306
224 225 225 224 223 223 224 224 224 225 225 226 227 226 226 226 225 225 225 226 227 228 228 228 228 229 229 230 232 233 234 235 235 235 236 238 239 241 242 243 243 245 246 247 249 249 250 251 252 253 254 254 255 257 258 258 259 260 260 261 261 262 262 263 265 266 268 270 271 273 276 278 279 281 283 284 285 286 288 290 293 296 299 301 302
225 227 227 225 225 225 225 225 226 226 226 228 228 229 228 228 228 227 227 227 228 228 229 229 230 230 231 231 233 234 235 236 237 237 238 239 241 242 243 244 245 246 247 248 249 250 251 252 253 253 254 255 256 257 258 259 259 260 261 262 263 264 264 265 266 267 269 270 272 274 276 278 279 281 282 284 285 286 287 288 290 292 295 297 298
227 228 228 227 227 227 227 227 227 228 228 229 229 230 230 230 230 229 229 229 229 229 230 230 231 231 231 232 233 234 236 237 237 238 239 240 242 243 244 245 246 247 248 249 250 251 252 253 254 254 255 256 257 257 257 259 259 260 261 261 263 264 265 266 267 268 270 271 272 274 275 277 279 280 281 283 284 285 286 287 288 290 293 294 296
228 228 229 229 228 228 229 229 229 229 229 230 230 230 231 231 231 231 231 230 230 230 231 231 232 232 232 233 233 234 236 237 238 238 239 240 242 243 245 245 246 247 248 249 250 251 252 253 254 255 256 257 258 259 259 259 259 260 261 262 263 264 265 266 268 269 270 271 272 274 275 277 278 279 280 282 284 285 286 286 287 288 290 292 293
228 229 230 230 230 229 229 229 230 230 231 231 231 231 231 231 232 232 232 232 232 232 232 232 233 234 234 234 235 235 237 238 238 239 240 241 242 243 245 246 246 247 248 249 250 251 252 253 255 256 257 258 259 260 260 261 261 261 262 263 264 264 265 266 267 268 270 271 272 273 275 276 277 278 279 281 282 284 285 286 287 287 288 289 291
231 230 231 232 232 231 229 230 230 231 232 232 232 232 232 232 233 233 233 234 234 234 234 234 234 235 235 236 237 238 238 239 239 240 241 242 242 244 245 246 247 248 248 249 249 250 252 254 255 256 258 259 259 260 261 261 262 262 262 263 265 265 266 266 266 267 268 269 271 272 274 276 277 278 280 280 281 282 283 285 287 287 288 289 290
234 233 232 233 234 233 232 231 231 232 233 233 233 233 233 234 234 234 235 235 235 236 236 236 236 236 237 237 238 239 240 240 241 241 242 242 243 245 246 247 248 248 248 249 249 250 251 253 255 256 258 258 259 259 260 260 261 261 262 263 265 266 267 267 267 268 268 268 269 271 273 274 276 278 280 280 281 282 283 284 285 287 288 288 289
237 236 235 234 235 235 234 233 233 233 233 233 234 234 235 235 235 235 235 236 237 237 237 237 238 238 238 239 239 240 241 241 241 242 243 243 244 246 247 248 248 249 249 249 250 250 251 252 254 255 257 258 259 258 259 260 260 261 261 262 264 265 266 267 267 267 268 269 270 271 272 274 275 277 278 279 281 282 283 284 284 286 287 287 288
240 240 238 237 236 237 236 236 235 234 233 233 234 235 236 236 236 236 236 237 238 238 238 238 239 239 239 240 240 241 242 242 242 243 243 244 245 247 248 248 249 249 250 250 251 251 252 252 253 255 256 258 258 258 258 259 260 260 261 262 263 264 265 266 267 267 267 268 269 271 272 273 274 275 277 278 279 281 282 283 284 285 286 287 287
241 242 241 240 239 239 238 238 237 236 235 234 234 235 236 236 237 237 237 238 238 239 240 240 240 240 240 241 241 242 243 243 243 243 244 244 245 247 248 248 249 249 250 251 252 252 253 253 253 254 255 257 258 258 258 259 260 260 261 262 263 264 265 266 267 267 267 267 269 270 272 273 274 275 276 276 277 278 279 281 283 285 285 285 287
242 243 243 243 242 241 240 240 239 238 237 237 236 235 235 236 236 236 237 238 239 240 241 241 241 242 242 242 242 243 244 245 244 244 245 244 245 247 248 249 249 249 250 251 252 252 253 253 253 253 255 257 258 258 257 258 259 260 260 261 262 263 264 265 266 267 267 268 269 270 272 273 273 274 275 275 274 275 276 279 281 282 283 284 285
242 243 245 245 244 243 242 241 241 240 239 238 237 236 235 235 235 236 237 238 240 241 242 242 242 243 243 244 244 244 245 246 245 245 245 245 246 247 248 249 249 249 250 250 251 252 253 254 254 253 254 256 258 258 258 258 259 260 260 261 261 262 264 265 265 266 267 268 269 270 272 273 273 273 274 274 274 273 274 276 278 279 280 282 284
243 243 244 245 246 246 244 243 242 242 241 239 237 236 235 234 234 235 236 238 239 240 241 242 243 243 244 244 245 245 245 246 246 245 246 246 246 247 248 249 249 250 250 250 251 252 253 254 255 254 254 256 257 258 258 258 259 260 261 261 261 263 264 265 266 266 267 267 269 270 272 272 273 273 273 274 274 273 273 274 275 276 277 279 282
244 244 244 244 246 248 247 245 243 242 242 242 239 237 236 235 235 235 236 238 238 239 240 241 242 244 244 244 245 245 245 246 246 246 246 246 246 247 248 249 249 250 251 252 252 252 252 253 255 255 255 255 257 258 258 258 259 260 261 261 262 263 264 266 266 266 267 268 269 270 271 272 273 273 273 273 274 273 274 274 274 275 275 277 279
245 244 244 244 245 247 248 248 246 244 244 244 244 243 241 239 237 237 237 238 239 239 240 241 242 243 244 244 245 245 246 246 246 247 247 247 247 247 248 249 249 250 252 252 252 252 252 253 254 254 254 255 256 257 258 259 260 261 261 262 262 263 264 265 266 266 267 268 269 270 271 272 272 272 273 273 273 273 274 274 275 275 275 275 276
246 245 244 244 245 246 247 248 247 247 246 246 245 245 243 240 239 238 238 239 239 240 240 241 241 242 243 244 245 245 246 246 246 247 247 247 247 247 248 249 249 250 251 252 253 252 252 253 253 254 255 255 256 258 258 260 260 261 261 261 262 263 263 264 264 265 266 268 269 270 270 271 271 271 272 273 273 273 274 275 275 275 274 274 275
248 247 246 245 246 246 246 247 247 247 247 245 243 243 242 241 239 239 239 239 239 240 240 240 240 241 243 244 244 245 246 246 247 247 247 247 247 247 248 248 249 249 250 252 252 253 253 253 254 255 256 256 257 258 259 260 260 261 261 261 262 262 262 263 263 264 266 267 268 269 270 270 270 271 272 273 273 273 273 274 274 274 274 274 274
248 248 248 247 247 247 246 246 246 246 246 245 242 241 241 240 239 238 239 239 239 239 239 239 240 241 242 243 244 244 245 246 247 247 247 247 247 247 248 249 249 249 250 252 253 254 254 255 255 256 257 257 258 260 261 261 261 261 261 261 261 261 261 261 262 263 264 266 267 268 269 270 270 271 272 272 272 272 273 273 274 274 274 273 273
246 248 249 248 248 247 247 246 245 245 245 245 243 241 241 240 239 239 239 239 239 238 239 239 240 241 242 243 244 244 245 245 246 247 248 248 248 248 248 250 250 251 251 252 253 253 254 255 256 257 258 258 259 260 262 262 262 262 262 262 261 261 260 261 261 262 264 265 266 267 268 269 270 270 271 271 271 272 271 272 273 273 273 273 272
245 246 248 248 247 247 247 246 245 244 244 245 244 243 242 241 240 239 239 239 239 239 238 239 241 242 243 244 244 244 244 245 246 247 247 247 247 247 248 250 251 251 252 252 252 253 253 254 255 257 258 259 260 260 261 261 262 262 262 262 261 261 261 260 261 262 263 264 265 266 268 269 269 270 270 271 271 271 270 271 272 272 271 271 270
245 245 246 247 247 246 247 246 245 244 244 244 245 244 244 243 242 241 239 238 239 240 240 240 241 242 243 244 244 244 244 245 246 246 246 245 245 246 248 249 250 251 251 251 251 252 252 253 255 257 258 259 260 261 261 261 261 262 262 263 262 261 261 260 260 261 262 263 264 266 267 268 269 269 270 270 270 269 269 269 270 270 270 269 268
245 244 244 245 246 246 246 245 245 243 243 244 245 245 245 244 244 243 242 241 241 241 242 242 243 244 244 245 245 245 245 246 247 247 247 246 246 247 248 249 251 252 252 252 252 253 254 254 255 257 258 259 260 261 261 261 261 262 263 263 264 263 262 261 261 261 262 263 264 265 266 267 268 269 269 269 269 268 268 268 268 269 269 268 267
245 244 244 244 245 246 246 246 245 243 242 243 245 246 246 245 244 243 243 243 243 243 243 244 245 245 246 246 246 247 247 248 249 249 248 248 248 249 250 251 252 253 253 252 253 255 256 257 257 257 258 259 260 261 262 262 262 263 264 264 265 265 264 263 262 262 262 263 264 265 266 267 268 269 269 269 268 267 267 267 267 268 268 268 267
243 244 244 244 244 245 245 246 246 244 242 243 244 245 245 245 245 244 243 244 244 244 244 245 245 246 246 245 246 246 247 248 249 249 249 249 249 249 250 251 252 253 253 253 254 256 257 258 258 259 259 260 261 261 262 262 262 263 264 265 266 265 265 264 264 263 263 263 264 265 266 267 268 268 268 268 267 266 266 266 266 267 267 267 267
241 242 243 244 244 243 244 245 246 244 243 243 243 244 245 245 245 246 245 245 245 245 245 245 246 246 246 245 245 245 246 248 249 249 249 249 250 250 250 251 252 252 252 253 255 257 258 259 259 259 260 261 262 262 262 262 262 263 264 265 266 267 266 266 265 264 263 263 264 265 266 266 267 267 267 267 266 265 265 265 265 266 266 266 266
240 241 242 242 243 243 243 243 244 244 243 243 243 244 245 245 244 245 247 247 247 246 245 245 245 246 247 246 246 245 246 247 248 248 248 249 249 249 249 250 251 252 252 254 255 257 258 259 259 259 260 261 262 262 263 263 262 263 264 266 267 268 268 267 265 264 264 264 264 264 265 265 265 266 266 266 265 265 265 265 265 265 265 266 266
239 240 240 241 242 242 241 242 243 244 244 244 243 243 245 245 245 245 246 247 248 247 246 245 245 245 246 246 246 246 246 247 247 247 247 248 248 248 248 249 250 252 253 254 255 256 258 259 260 260 260 261 261 262 263 263 263 263 264 266 267 268 268 267 266 265 264 264 264 264 264 265 265 265 265 265 265 265 265 265 265 265 265 266 266
238 238 239 239 240 240 240 241 243 244 245 245 244 244 244 245 246 246 246 246 246 247 247 247 247 247 246 246 246 247 247 248 248 247 247 246 246 246 247 248 250 251 252 253 254 255 257 258 259 260 260 260 261 261 262 263 263 263 264 265 266 267 268 268 267 266 265 265 265 264 264 264 264 264 265 265 265 266 266 266 265 265 265 266 266
238 237 238 238 239 239 239 240 242 244 244 245 244 244 244 244 245 246 246 245 245 245 245 247 248 248 248 247 247 247 247 248 248 247 247 247 246 246 247 248 249 250 252 252 253 254 256 258 259 260 260 260 260 261 262 262 262 262 264 265 265 267 268 268 268 267 267 266 266 266 265 264 264 264 264 265 266 267 268 267 266 266 266 266 266
237 237 237 238 238 238 238 238 240 242 243 244 243 243 243 243 245 246 246 245 244 244 245 245 247 247 248 248 247 247 246 247 248 247 248 248 247 246 247 248 249 250 251 252 253 254 256 257 259 260 260 261 261 261 261 261 261 262 263 265 265 266 267 268 268 268 268 268 267 266 265 265 265 265 265 266 267 268 268 268 267 267 266 265 264
237 237 237 238 238 238 238 238 239 240 242 242 242 242 242 242 243 245 246 245 244 244 244 244 245 246 246 246 246 246 246 247 247 247 247 247 246 246 246 247 248 250 251 253 254 255 255 257 258 258 259 260 260 261 261 261 262 262 263 264 265 265 266 267 269 269 269 268 268 267 267 266 266 266 266 267 268 269 269 268 267 267 267 265 263
236 236 237 237 237 238 238 238 238 239 240 241 241 241 241 241 242 244 245 246 244 244 244 244 244 244 245 245 245 246 247 248 248 248 247 246 246 246 246 247 248 250 251 253 254 255 255 256 257 258 259 260 261 262 262 262 263 263 264 264 265 265 266 267 269 269 269 268 268 268 267 267 267 267 268 268 268 269 269 268 267 267 266 264 262
236 236 236 236 237 238 238 238 238 238 239 240 241 241 241 241 241 242 244 245 245 244 244 244 243 244 245 245 245 246 247 248 249 249 248 247 247 247 247 248 249 250 252 253 254 255 255 256 257 259 260 261 263 263 263 262 262 263 264 264 264 265 266 267 267 268 269 268 268 267 267 267 267 268 269 269 269 270 269 268 268 267 266 264 262
235 235 235 236 237 237 237 238 238 238 238 238 239 240 240 240 240 241 243 244 245 245 244 244 244 245 245 245 245 246 248 249 249 249 249 249 249 249 250 250 250 251 252 254 255 255 256 257 258 259 260 261 263 263 263 263 263 263 264 264 264 265 266 266 266 267 267 268 268 268 267 267 267 268 269 269 270 270 270 269 268 267 267 266 264
234 234 235 236 236 236 235 236 237 238 238 237 237 238 239 239 239 241 242 243 245 245 244 244 245 245 245 245 245 246 248 249 249 250 250 251 251 252 252 253 253 253 254 255 255 256 257 257 258 259 260 261 262 263 264 264 264 264 264 264 264 265 266 267 267 266 266 266 267 267 267 267 267 267 268 269 270 270 269 269 267 265 265 266 266
233 233 234 235 235 234 234 235 236 237 237 237 237 237 238 237 238 240 241 242 244 244 244 245 245 246 245 245 245 246 247 249 250 250 251 252 253 253 254 255 256 256 257 256 256 257 258 258 259 260 261 262 263 264 264 265 265 265 265 264 264 265 266 267 266 264 264 265 265 265 266 267 266 266 267 267 268 268 268 267 266 263 263 265 267
232 232 233 234 234 234 233 234 234 235 236 236 236 236 236 236 237 239 240 242 243 243 244 244 245 244 244 244 245 247 248 249 250 251 252 253 254 254 255 256 257 258 258 258 258 258 259 259 259 260 261 262 263 263 264 265 266 266 266 266 266 266 267 267 266 265 264 264 264 264 265 266 266 266 266 266 265 266 265 265 264 262 262 265 267
230 229 230 232 233 234 234 233 233 234 234 235 235 236 235 235 236 238 239 240 241 241 242 242 243 243 243 243 245 247 248 250 251 252 253 254 254 255 256 257 258 258 258 258 259 259 260 260 260 261 262 263 263 264 264 265 265 266 266 266 267 267 267 267 267 266 265 264 264 264 265 265 266 266 266 265 264 264 263 263 262 260 261 266 267
228 227 229 231 232 233 234 233 232 232 232 233 234 235 235 235 235 236 238 238 238 239 240 240 241 242 242 243 245 246 248 250 252 253 254 254 255 255 257 258 258 258 258 258 259 260 260 261 261 262 263 263 264 265 265 265 265 266 266 267 267 267 267 267 267 267 267 266 265 264 264 265 265 265 265 264 263 262 261 261 261 260 262 265 265
226 227 228 230 231 232 233 233 232 231 231 232 232 233 234 234 234 235 236 237 237 237 238 239 240 241 242 244 246 247 249 250 252 253 254 254 255 255 257 257 258 258 258 258 259 259 260 261 261 262 262 263 264 265 265 266 266 266 267 267 267 267 266 267 267 268 267 267 266 265 264 264 263 263 263 262 261 260 260 261 261 261 262 264 263
226 226 228 229 230 230 231 232 231 230 230 231 231 231 232 233 233 234 235 235 235 235 236 238 239 240 242 244 246 248 249 250 251 253 253 254 254 255 256 257 258 258 258 258 258 259 259 260 260 261 261 262 264 264 265 265 265 266 266 266 266 266 266 266 267 267 266 266 265 265 264 262 260 260 261 260 258 258 259 260 261 261 263 264 263
225 226 227 228 229 229 230 231 230 229 229 229 229 229 229 230 231 232 233 233 232 233 235 237 238 240 242 244 246 248 249 249 250 252 252 253 253 254 255 256 257 258 257 257 257 258 258 259 260 260 261 262 263 264 264 264 264 265 265 265 265 265 265 265 265 265 264 264 263 263 262 260 259 260 260 258 255 254 257 260 262 262 262 263 263
224 225 225 226 227 227 228 229 229 228 228 228 229 229 229 229 229 230 231 231 232 233 234 236 238 239 241 243 245 247 248 249 249 251 252 252 253 254 255 255 256 257 258 258 258 257 258 258 259 260 261 262 262 263 263 264 264 264 264 264 265 265 265 265 265 264 263 262 261 260 259 259 259 259 258 255 253 254 256 259 261 261 262 263 262